Location: Alpine
(43.1636°N, 111.0180°W)
Time: 05:24:42
(UTC+00:00)

Tiros 1 despin weight - Pass Details

Date: 05 June 2022
Orbit: 591 x 639 km, 48.2° (Epoch: 30 June)

Event Time Altitude Azimuth Distance (km) Brightness Sun altitude
Rises 19:46:59 0° 189° (S) 2,915 ? 68.8°
Reaches altitude 10° 19:50:21 10° 163° (SSE) 2,005 ? 68.7°
Maximum altitude 19:52:40 14° 133° (SE) 1,762 ? 68.5°
Drops below altitude 10° 19:54:59 10° 102° (ESE) 1,998 ? 68.4°
Sets 19:58:19 0° 77° (ENE) 2,898 ? 68.2°
